Satellite-Ground Cal/Val Region Overpasses Predictions

Prediction of Satellite NPP Overpassing Cal/Val Region: PacNW

Region Location: (Latitude: 10.00, Longitude: 139.50) to (Latitude: 22.70, Longitude: 165.60).

Table of predicted overpasses for the next 14.0 days since TLE Epoch: 7/12/2019
Interval Starting Time Starting Location Ending Time Ending Location
1 07/13/2019 02:14:56 ( 12.56, 165.59) 07/13/2019 02:17:48 ( 22.66, 163.16)
2 07/13/2019 03:55:43 ( 10.04, 140.79) 07/13/2019 03:57:17 ( 15.56, 139.51)
3 07/13/2019 14:46:06 ( 22.68, 163.41) 07/13/2019 14:49:42 ( 10.00, 160.39)
4 07/14/2019 03:36:41 ( 10.05, 145.55) 07/14/2019 03:40:16 ( 22.67, 142.54)
5 07/14/2019 14:30:07 ( 11.93, 165.59) 07/14/2019 14:30:39 ( 10.05, 165.16)
6 07/14/2019 16:08:34 ( 22.67, 142.79) 07/14/2019 16:12:09 ( 10.05, 139.79)
7 07/15/2019 03:17:39 ( 10.00, 150.32) 07/15/2019 03:21:15 ( 22.68, 147.30)
8 07/15/2019 15:49:33 ( 22.66, 147.55) 07/15/2019 15:53:08 ( 10.04, 144.54)
9 07/16/2019 02:58:37 ( 10.01, 155.07) 07/16/2019 03:02:13 ( 22.69, 152.05)
10 07/16/2019 15:30:31 ( 22.65, 152.30) 07/16/2019 15:34:06 ( 10.03, 149.30)
11 07/17/2019 02:39:36 ( 10.02, 159.83) 07/17/2019 02:43:12 ( 22.70, 156.81)
12 07/17/2019 15:11:30 ( 22.64, 157.06) 07/17/2019 15:15:05 ( 10.02, 154.05)
13 07/18/2019 02:20:35 ( 10.03, 164.58) 07/18/2019 02:24:10 ( 22.65, 161.58)
14 07/18/2019 14:52:27 ( 22.69, 161.83) 07/18/2019 14:56:03 ( 10.01, 158.81)
15 07/19/2019 03:43:03 ( 10.04, 143.96) 07/19/2019 03:46:38 ( 22.66, 140.96)
16 07/19/2019 14:34:35 ( 18.64, 165.59) 07/19/2019 14:37:02 ( 10.00, 163.56)
17 07/19/2019 16:14:56 ( 22.68, 141.21) 07/19/2019 16:16:55 ( 15.70, 139.51)
18 07/20/2019 03:24:02 ( 10.05, 148.72) 07/20/2019 03:27:37 ( 22.67, 145.71)
19 07/20/2019 15:55:54 ( 22.67, 145.96) 07/20/2019 15:59:29 ( 10.05, 142.96)
20 07/21/2019 03:04:59 ( 10.00, 153.49) 07/21/2019 03:08:35 ( 22.68, 150.47)
21 07/21/2019 15:36:53 ( 22.66, 150.72) 07/21/2019 15:40:28 ( 10.04, 147.71)
22 07/22/2019 02:45:58 ( 10.01, 158.24) 07/22/2019 02:49:34 ( 22.69, 155.22)
23 07/22/2019 15:17:51 ( 22.65, 155.47) 07/22/2019 15:21:26 ( 10.03, 152.47)
24 07/23/2019 02:26:56 ( 10.02, 163.00) 07/23/2019 02:30:31 ( 22.65, 159.99)
25 07/23/2019 14:58:49 ( 22.70, 160.24) 07/23/2019 15:02:25 ( 10.02, 157.22)
26 07/24/2019 02:10:32 ( 19.26, 165.59) 07/24/2019 02:11:30 ( 22.66, 164.75)
27 07/24/2019 03:49:25 ( 10.04, 142.38) 07/24/2019 03:52:51 ( 22.13, 139.50)
28 07/24/2019 14:39:48 ( 22.68, 165.00) 07/24/2019 14:43:24 ( 10.01, 161.98)
29 07/24/2019 16:21:17 ( 22.68, 139.62) 07/24/2019 16:21:25 ( 22.21, 139.50)
30 07/25/2019 03:30:23 ( 10.05, 147.13) 07/25/2019 03:33:58 ( 22.67, 144.13)
31 07/25/2019 16:02:16 ( 22.67, 144.38) 07/25/2019 16:05:51 ( 10.05, 141.37)
32 07/26/2019 03:11:21 ( 10.00, 151.90) 07/26/2019 03:14:57 ( 22.68, 148.88)


NCC Satellite Cal/Val Overpasses Prediction Service
